Location: Newark
(39.0622°N, 106.5590°E)
Time: 00:26:22
(UTC+00:00)

Courier 1B - Pass Details

Date: 27 January 2020
Orbit: 962 x 1209 km, 28.3° (Epoch: 20 February)

Event Time Altitude Azimuth Distance (km) Brightness Sun altitude
Rises 21:17:21 0° 256° (WSW) 3,875 - -32.5°
Reaches altitude 10° 21:20:17 10° 248° (WSW) 2,957 - -31.9°
Exits shadow 21:26:30 35° 190° (S) 1,762 8.7 -30.7°
Maximum altitude 21:26:46 35° 185° (S) 1,762 8.7 -30.6°
Drops below altitude 10° 21:33:34 10° 123° (ESE) 3,099 10.8 -29.3°
Sets 21:36:43 0° 115° (ESE) 4,083 11.7 -28.7°
